Lid_Strength_Index
3 3 3 2 2 2 2 3 3 4 4 4 4 5 5 5 4 4 5 5 6 10 10 10 10 12 14 14 16 17 17 19 20 21 21 22 27 25 26 25 24 25 25 26 25 25 24 22 20 20 19 27 25 24
4 4 4 3 3 2 2 2 3 4 4 4 4 4 5 5 5 4 6 5 5 9 10 10 10 10 10 12 14 16 16 18 17 19 21 22 26 25 26 23 23 23 21 23 22 21 22 20 21 23 26 23 25 21
5 5 5 4 4 3 3 2 2 3 4 4 4 4 5 5 5 5 6 6 7 10 10 11 12 11 10 11 11 16 16 15 17 16 18 20 24 21 24 23 24 21 20 21 21 20 19 20 20 24 23 20 20 18
6 6 6 5 5 5 4 3 3 3 4 4 5 5 5 5 5 5 7 6 7 10 11 14 11 13 11 11 13 13 14 15 15 17 18 20 23 19 21 21 22 20 20 20 20 18 21 19 19 16 21 22 19 19
6 6 5 5 5 5 5 4 3 3 4 4 5 5 5 6 6 7 7 6 6 8 11 12 13 13 13 12 13 13 14 15 16 17 20 21 19 20 21 21 22 20 19 18 18 16 17 17 17 17 18 19 19 19
5 5 5 5 4 4 4 4 4 3 4 4 5 6 6 6 6 7 11 7 6 7 10 13 15 18 16 12 12 14 14 14 15 17 18 19 18 18 23 23 19 18 18 17 16 17 17 17 18 17 16 17 18 18
4 4 4 4 4 4 4 4 4 3 4 4 5 5 6 6 8 11 11 8 5 7 10 12 19 15 14 13 14 14 15 16 16 17 19 19 19 18 22 23 17 18 17 18 18 17 18 18 18 19 19 19 19 21
4 3 3 3 3 3 3 3 3 2 3 4 5 5 6 6 7 11 8 6 6 9 10 12 19 20 14 16 16 15 17 17 18 18 20 20 21 21 22 19 17 17 20 22 19 18 18 21 21 21 22 21 21 20
3 2 4 3 2 2 3 3 2 1 2 4 4 5 9 11 12 11 6 6 5 9 11 15 20 20 14 17 16 17 16 19 21 22 21 21 25 24 20 18 19 18 18 20 25 24 24 22 22 24 24 23 21 20
4 3 3 3 3 3 4 3 2 2 2 2 6 11 13 10 5 5 8 10 10 10 11 16 24 22 17 18 19 19 18 19 22 25 25 26 24 20 18 17 19 20 20 22 23 23 27 25 24 23 22 21 19 19
3 3 2 0 -0 -0 0 0 0 0 0 6 7 10 11 4 10 8 12 12 10 12 12 19 21 20 17 20 20 18 18 20 24 26 25 25 26 21 22 25 22 24 23 22 25 26 27 25 24 22 24 23 23 23
1 -0 -1 -0 -0 -1 -0 -0 -0 3 6 5 6 3 4 10 13 11 12 12 12 16 17 20 21 18 19 18 19 20 19 22 23 31 27 29 21 20 25 27 27 28 29 29 31 28 26 25 27 28 26 23 23 22
-1 -1 -1 -1 -1 -0 -0 -1 -1 -0 1 3 10 13 10 13 15 13 16 15 18 19 19 21 21 19 19 18 20 20 20 22 29 32 28 23 20 24 25 28 28 31 33 34 32 33 33 32 31 29 26 28 26 23
-1 -1 -1 -1 -1 -1 -1 -1 -1 -0 4 9 12 15 15 13 11 11 13 15 15 20 20 18 20 20 22 19 21 20 26 25 33 33 26 20 21 23 29 30 27 27 30 31 31 33 34 34 32 31 29 30 28 26
-1 -1 -1 -1 -1 -1 -1 -1 -1 2 6 10 11 17 15 13 11 12 13 16 16 15 16 19 21 19 25 23 23 25 27 24 28 25 21 22 25 28 30 30 29 29 30 31 34 34 33 34 35 33 31 31 30 29
-1 -1 0 -1 -1 -1 -1 -1 1 2 4 6 8 9 11 11 14 11 10 13 13 11 17 16 17 18 21 22 26 23 22 22 20 23 23 25 27 32 34 34 31 30 31 31 31 33 33 32 32 31 33 31 31 30
-1 3 -1 -1 -1 -1 -1 1 2 5 6 8 13 16 10 10 11 12 12 12 11 11 12 13 16 16 19 24 22 22 22 18 23 26 26 27 26 31 34 33 33 31 29 30 30 29 30 31 31 28 27 30 32 31
2 1 -1 -1 -1 0 2 3 7 6 13 13 14 14 12 12 12 13 13 13 11 12 13 15 17 21 20 20 22 19 24 27 25 26 27 28 29 33 33 31 31 31 31 31 30 30 29 28 28 29 32 32 29 29
2 1 -1 -1 0 3 5 7 8 9 11 19 18 15 14 13 12 12 14 12 10 12 14 14 17 20 19 22 23 26 26 24 25 26 28 30 29 28 30 30 30 30 30 32 30 30 30 30 31 30 30 29 29 30
-1 -1 -1 -1 0 5 7 9 9 14 15 13 17 16 14 14 13 15 13 13 12 11 13 15 19 23 27 27 27 27 26 24 24 26 26 27 28 28 29 30 30 31 30 31 29 29 30 29 29 30 30 30 29 29
0 1 -1 0 5 7 9 13 16 14 17 14 15 13 15 16 14 13 13 13 13 13 16 27 30 29 25 29 28 27 27 26 26 25 27 28 29 28 29 30 30 29 30 31 30 30 30 31 31 31 31 30 32 31
3 -1 3 5 8 12 13 14 14 15 12 14 15 16 16 16 16 15 14 15 19 28 27 24 24 26 28 26 29 28 25 24 25 25 26 26 27 28 29 30 30 31 31 32 31 32 31 31 31 31 30 30 28 28
1 2 5 8 11 14 16 15 16 17 14 15 15 15 15 15 14 14 17 24 26 26 27 25 24 25 26 24 27 26 25 23 26 26 27 28 29 29 31 32 32 31 31 32 33 32 32 30 30 30 30 29 29 29
2 7 9 11 13 17 18 18 20 17 16 16 18 18 17 16 15 17 21 29 29 28 26 25 24 27 28 27 27 27 27 25 26 27 27 28 30 31 31 32 32 32 33 32 32 32 32 32 31 31 31 31 31 31
9 11 11 14 17 19 20 18 22 19 18 16 18 17 14 14 15 16 20 32 30 30 29 27 24 23 26 29 27 28 27 27 27 29 29 29 30 30 31 32 32 32 33 31 33 33 33 33 31 32 32 32 32 32
14 16 16 20 21 17 18 21 21 19 20 19 17 17 15 15 17 18 28 32 31 31 31 30 28 25 27 26 27 27 28 26 27 29 30 29 29 28 29 30 31 31 31 33 33 32 32 32 32 32 32 32 31 31
21 23 25 25 21 19 17 21 21 19 20 20 17 18 16 17 20 33 31 31 31 32 31 30 32 28 28 29 29 28 27 27 28 29 29 29 30 30 29 30 31 30 29 30 31 30 30 30 30 29 30 31 32 33
22 22 20 23 24 24 20 23 22 22 24 25 25 20 17 24 27 34 33 30 31 30 30 30 30 29 29 29 28 28 28 28 28 28 28 29 30 30 30 29 27 25 28 28 28 28 29 30 31 31 32 33 33 34
21 21 18 21 23 24 26 25 25 30 31 30 27 31 34 34 33 34 32 32 30 30 31 31 30 28 29 29 29 29 28 28 27 28 29 29 29 31 31 31 29 28 26 27 25 28 31 31 32 33 34 34 37 37
21 26 27 27 23 26 30 31 32 31 30 31 32 33 33 32 32 31 32 31 31 31 30 29 28 28 30 29 30 30 30 30 29 27 28 28 30 31 31 30 30 30 30 30 31 31 27 32 31 34 33 34 35 35
23 23 27 30 30 29 29 29 29 29 30 31 32 33 33 33 32 31 32 32 31 30 30 30 31 29 29 29 29 29 30 30 30 30 29 30 30 31 32 32 33 32 32 32 33 33 33 34 34 35 35 36 37 35
27 28 28 30 30 28 28 29 28 28 30 31 33 33 33 33 33 32 33 33 31 32 30 30 31 32 31 30 29 29 29 30 30 30 30 31 32 33 33 33 33 32 33 33 33 34 35 35 35 35 36 37 38 38
27 28 29 29 30 33 31 29 29 30 31 32 33 33 34 34 35 34 31 32 31 31 32 32 31 30 29 28 28 29 29 29 28 27 28 29 30 31 33 33 32 32 33 34 34 34 35 36 36 38 38 38 39 39